HP3ICC-24 Weather Reports


time (UTC)temp
C
wind
direction
speed
KPH
gust
KPH
rain 1hr
cm
rain 24hr
cm
rain mn
cm
humidity
%
barometer
mb
20260503014219 16 42 4.8 8.0 0.00 0.00 0.00 82 1014.0
20260503014119 16 42 4.8 8.0 0.00 0.00 0.00 82 1014.0
20260503012219 17 42 4.8 8.0 0.00 0.00 0.00 82 1013.0
20260503012118 17 42 4.8 8.0 0.00 0.00 0.00 82 1013.0
20260503010218 17 42 4.8 8.0 0.00 0.00 0.00 82 1014.0
20260503010118 17 42 4.8 8.0 0.00 0.00 0.00 82 1014.0
20260503004218 17 42 4.8 8.0 0.00 0.00 0.00 82 1014.0
20260503004117 17 42 4.8 8.0 0.00 0.00 0.00 82 1014.0
20260503002217 17 42 4.8 8.0 0.00 0.00 0.00 82 1012.0
20260503002117 17 42 4.8 8.0 0.00 0.00 0.00 82 1012.0
20260503000218 17 42 4.8 8.0 0.03 0.00 0.00 82 1013.0
20260503000116 17 42 4.8 8.0 0.03 0.00 0.00 82 1013.0
20260502234216 17 42 4.8 8.0 0.08 0.00 0.00 82 1013.0
20260502234116 17 42 4.8 8.0 0.08 0.00 0.00 82 1013.0
20260502232216 17 42 4.8 8.0 0.20 0.00 0.00 82 1011.0
20260502232115 17 42 4.8 8.0 0.20 0.00 0.00 82 1011.0
20260502230215 17 42 4.8 8.0 0.28 0.00 0.00 82 1012.0
20260502230115 17 42 4.8 8.0 0.28 0.00 0.00 82 1012.0
20260502224215 17 42 4.8 8.0 0.13 0.00 0.00 82 1012.0
20260502224114 17 42 4.8 8.0 0.13 0.00 0.00 82 1012.0
20260502222214 17 42 4.8 8.0 0.00 0.00 0.00 82 1009.0
20260502222114 17 42 4.8 8.0 0.00 0.00 0.00 82 1009.0
20260502220214 17 42 4.8 8.0 0.00 0.00 0.00 82 1011.0
20260502220113 17 42 4.8 8.0 0.00 0.00 0.00 82 1011.0
20260502214213 17 42 4.8 8.0 0.00 0.00 0.00 82 1011.0
20260502214113 17 42 4.8 8.0 0.00 0.00 0.00 82 1011.0
20260502212213 17 42 4.8 8.0 0.00 0.00 0.00 82 1009.0
20260502212112 17 42 4.8 8.0 0.00 0.00 0.00 82 1009.0
20260502210212 17 42 4.8 8.0 0.00 0.00 0.00 82 1011.0
20260502210112 17 42 4.8 8.0 0.00 0.00 0.00 82 1011.0
20260502204212 18 42 4.8 8.0 0.00 0.00 0.00 82 1011.0
20260502204112 18 42 4.8 8.0 0.00 0.00 0.00 82 1011.0
20260502202211 18 42 4.8 8.0 0.00 0.00 0.00 82 1010.0
20260502202111 18 42 4.8 8.0 0.00 0.00 0.00 82 1010.0
20260502200211 18 42 4.8 8.0 0.00 0.00 0.00 82 1011.0
20260502200110 18 42 4.8 8.0 0.00 0.00 0.00 82 1011.0
20260502194210 18 42 4.8 8.0 0.00 0.00 0.00 82 1011.0
20260502194110 18 42 4.8 8.0 0.00 0.00 0.00 82 1011.0
20260502192210 18 42 4.8 8.0 0.00 0.00 0.00 82 1011.0
20260502192109 18 42 4.8 8.0 0.00 0.00 0.00 82 1011.0
20260502190209 18 42 4.8 8.0 0.03 0.00 0.00 82 1012.0
20260502190109 18 42 4.8 8.0 0.03 0.00 0.00 82 1012.0
20260502184209 18 42 4.8 8.0 0.00 0.00 0.00 82 1012.0
20260502184109 18 42 4.8 8.0 0.00 0.00 0.00 82 1012.0
20260502182208 18 42 4.8 8.0 0.03 0.00 0.00 82 1012.0
20260502182108 18 42 4.8 8.0 0.03 0.00 0.00 82 1012.0
20260502180208 18 42 4.8 8.0 0.03 0.00 0.00 84 1012.0
20260502180108 18 42 4.8 8.0 0.03 0.00 0.00 84 1012.0
20260502170206 18 59 4.8 6.4 0.05 0.00 0.00 86 1013.0
20260502170106 18 59 4.8 6.4 0.05 0.00 0.00 86 1013.0
20260502164206 18 59 4.8 6.4 0.05 0.00 0.00 85 1013.0
20260502164106 18 59 4.8 6.4 0.05 0.00 0.00 85 1013.0
20260502162206 19 67 4.8 6.4 0.05 0.00 0.00 81 1012.0
20260502162105 19 67 4.8 6.4 0.05 0.00 0.00 81 1012.0
20260502160205 18 67 4.8 6.4 0.05 0.00 0.00 81 1013.0
20260502160105 18 67 4.8 6.4 0.05 0.00 0.00 81 1013.0
20260502152204 19 53 4.8 8.0 0.00 0.00 0.00 81 1012.0
20260502152104 19 53 4.8 8.0 0.00 0.00 0.00 81 1012.0
20260502150203 18 53 4.8 8.0 0.00 0.00 0.00 81 1013.0
20260502150103 18 53 4.8 8.0 0.00 0.00 0.00 81 1013.0
20260502130201 17 9 6.4 11.3 0.00 0.00 0.00 91 1012.0
20260502122200 16 74 1.6 1.6 0.00 0.00 0.00 81 1011.0
20260502122100 16 74 1.6 1.6 0.00 0.00 0.00 81 1011.0
20260502120200 16 74 1.6 1.6 0.00 0.00 0.00 81 1012.0
20260502114200 16 74 1.6 1.6 0.00 0.00 0.00 81 1012.0
20260502114100 16 74 1.6 1.6 0.00 0.00 0.00 81 1012.0
20260502112159 16 74 1.6 1.6 0.00 0.00 0.00 81 1011.0
20260502112059 16 74 1.6 1.6 0.00 0.00 0.00 81 1011.0
20260502110159 16 74 1.6 1.6 0.00 0.00 0.00 81 1012.0
20260502110059 16 74 1.6 1.6 0.00 0.00 0.00 81 1012.0
20260502104158 16 74 1.6 1.6 0.00 0.00 0.00 81 1012.0
20260502104058 16 74 1.6 1.6 0.00 0.00 0.00 81 1012.0
20260502102158 16 74 1.6 1.6 0.00 0.00 0.00 81 1011.0
20260502102057 16 74 1.6 1.6 0.00 0.00 0.00 81 1011.0
20260502100157 16 74 1.6 1.6 0.00 0.00 0.00 81 1011.0
20260502090156 16 74 1.6 1.6 0.00 0.00 0.00 81 1011.0
20260502070153 17 74 1.6 1.6 0.00 0.00 0.00 81 1011.0
20260502070053 17 74 1.6 1.6 0.00 0.00 0.00 81 1011.0
20260502064152 17 74 1.6 1.6 0.00 0.00 0.00 81 1012.0
20260502064052 17 74 1.6 1.6 0.00 0.00 0.00 81 1012.0
20260502062152 17 74 1.6 1.6 0.00 0.00 0.00 81 1012.0
20260502062052 17 74 1.6 1.6 0.00 0.00 0.00 81 1012.0
20260502060151 17 74 1.6 1.6 0.00 0.00 0.00 81 1012.0
20260502060051 17 74 1.6 1.6 0.00 0.00 0.00 81 1012.0
20260502054151 17 74 1.6 1.6 0.00 0.00 0.00 81 1012.0
20260502054051 17 74 1.6 1.6 0.00 0.00 0.00 81 1012.0
20260502052151 17 74 1.6 1.6 0.00 0.00 0.00 81 1012.0
20260502052051 17 74 1.6 1.6 0.00 0.00 0.00 81 1012.0
20260502050150 17 74 1.6 1.6 0.00 0.00 0.00 81 1013.0
20260502050050 17 74 1.6 1.6 0.00 0.00 0.00 81 1013.0
20260502044150 17 74 1.6 1.6 0.00 0.00 0.00 81 1013.0
20260502044049 17 74 1.6 1.6 0.00 0.00 0.00 81 1013.0
20260502042149 17 74 1.6 1.6 0.00 0.00 0.00 81 1012.0
20260502042049 17 74 1.6 1.6 0.00 0.00 0.00 81 1012.0
20260502040149 17 74 1.6 1.6 0.00 0.00 0.00 81 1012.0
20260502040048 17 74 1.6 1.6 0.00 0.00 0.00 81 1012.0
20260502034148 17 74 1.6 1.6 0.00 0.00 0.00 81 1012.0
20260502034048 17 74 1.6 1.6 0.00 0.00 0.00 81 1012.0
20260502032148 17 74 1.6 1.6 0.00 0.00 0.00 81 1011.0
20260502032048 17 74 1.6 1.6 0.00 0.00 0.00 81 1011.0
20260502030147 17 74 1.6 1.6 0.00 0.00 0.00 81 1012.0
20260502030047 17 74 1.6 1.6 0.00 0.00 0.00 81 1012.0
20260502024147 17 74 1.6 1.6 0.00 0.00 0.00 81 1012.0
20260502024047 17 74 1.6 1.6 0.00 0.00 0.00 81 1012.0
20260502022146 17 74 1.6 1.6 0.00 0.00 0.00 81 1011.0
20260502022046 17 74 1.6 1.6 0.00 0.00 0.00 81 1011.0
20260502020146 17 74 1.6 1.6 0.00 0.00 0.00 81 1012.0
20260502020046 17 74 1.6 1.6 0.00 0.00 0.00 81 1012.0